Flag for Poland Weather past 2 weeks in Katowice, Poland

Now
61 °F

Drizzle. Fog.


Feels Like: 61 °F
Forecast: 58 / 78 °F
Wind: 10 mph from Northeast

Location: Katowice Airport

Current Time: Jul 24, 2014 at 8:50:22 AM

Latest Report: Jul 24, 2014 at 8:30 AM


Visibility: 2 mi

Pressure: 29.80 "Hg

Humidity: 100%

Dew point: 61 °F

Location of KatowiceLocation

Historic Weather in Katowice — Graph

°F

Katowice temperature yesterday

Maximum temperature yesterday: 77 °F (at 1:30 PM)
Minimum temperature yesterday: 59 °F (at 3:30 AM)
Average temperature yesterday: 65 °F

Past Weeks' High & Low Weather Summary

 TemperatureHumidityPressure
High88 °F (Jul 20, 3:00 PM)100% (Jul 9, 3:00 PM)30.15 "Hg (Jul 9, 3:00 PM)
Low54 °F (Jul 13, 2:00 AM)30% (Jul 14, 4:00 PM)29.65 "Hg (Jul 9, 8:00 AM)
Average69 °F72%29.93 "Hg
* Reported Jul 9 8:00 AM — Jul 24 7:30 AM, Katowice, Weather by CustomWeather, © 2014

Note: Actual official high and low records may vary slightly from our data, if they occured in-between our weather recording intervals... More about our weather records

Advertising

Katowice weather history for previous 24 hours

 ConditionsComfort  
Time TempWeatherWind HumidityBarometerVisibility
7:30 AM
Jul 24
61 °FLight rain. Fog.14 mph94%29.80 "Hg2 mi
7:00 AM61 °FHeavy rain. Fog.13 mph94%29.80 "Hg2 mi
6:30 AM61 °FRain. Broken clouds.12 mph94%29.83 "Hg4 mi
6:00 AM59 °FRain. Broken clouds.10 mph100%29.83 "Hg4 mi
5:30 AM59 °FRain. Partly cloudy.10 mph100%29.86 "Hg4 mi
5:00 AM61 °FLight rain. Partly cloudy.8 mph94%29.86 "Hg5 mi
4:30 AM61 °FPartly cloudy.9 mph94%29.86 "HgN/A
4:00 AM61 °FPartly cloudy.9 mph94%29.86 "HgN/A
3:30 AM61 °FPartly cloudy.10 mph94%29.89 "Hg5 mi
3:00 AM59 °FLight rain. Partly cloudy.9 mph100%29.89 "Hg4 mi
2:30 AM59 °FLight rain. Fog.7 mph100%29.89 "Hg3 mi
2:00 AM59 °FLight rain. Fog.8 mph100%29.92 "Hg3 mi
1:30 AM59 °FPassing clouds.8 mph100%29.92 "Hg5 mi
1:00 AM59 °FSprinkles. Passing clouds.8 mph100%29.92 "Hg5 mi
12:30 AM59 °FPassing clouds.6 mph94%29.95 "HgN/A
12:00 AM59 °FPassing clouds.3 mph100%29.95 "HgN/A
11:30 PM
Jul 23
59 °FPassing clouds.6 mph100%29.95 "HgN/A
11:00 PM61 °FSprinkles. Passing clouds.9 mph94%29.95 "HgN/A
10:30 PM61 °FSprinkles. Passing clouds.8 mph94%29.95 "HgN/A
10:00 PM61 °FPassing clouds.10 mph88%29.95 "HgN/A
9:00 PM61 °FPassing clouds.8 mph88%29.95 "HgN/A
8:30 PM61 °FPassing clouds.7 mph88%29.95 "HgN/A
8:00 PM63 °FSprinkles. Passing clouds.8 mph88%29.95 "HgN/A
7:30 PM63 °FPassing clouds.7 mph88%29.95 "HgN/A
7:00 PM63 °FPassing clouds.7 mph88%29.95 "HgN/A
6:30 PM63 °FSprinkles. Scattered clouds.8 mph88%29.95 "HgN/A
6:00 PM63 °FScattered clouds.8 mph88%29.95 "HgN/A
5:30 PM63 °FThundershowers. Partly sunny.13 mph88%29.92 "HgN/A
5:00 PM64 °FThundershowers. Partly sunny.17 mph83%29.95 "HgN/A
4:30 PM72 °FPassing clouds.20 mph57%29.92 "HgN/A
4:00 PM75 °FPassing clouds.14 mph47%29.89 "HgN/A
3:30 PM75 °FPassing clouds.16 mph47%29.89 "HgN/A
3:00 PM75 °FPassing clouds.15 mph50%29.92 "HgN/A
2:30 PM77 °FPassing clouds.16 mph44%29.92 "HgN/A
2:00 PM75 °FPassing clouds.18 mph47%29.92 "HgN/A
1:30 PM77 °FPassing clouds.23 mph47%29.92 "HgN/A
1:00 PM75 °FScattered clouds.18 mph54%29.92 "HgN/A
12:30 PM73 °FScattered clouds.16 mph61%29.95 "HgN/A
12:00 PM75 °FScattered clouds.18 mph54%29.95 "HgN/A
11:00 AM73 °FScattered clouds.15 mph57%29.95 "HgN/A
Weather by CustomWeather, © 2014

See weather overviewHow to use our weather pages